Location: Berg
(48.4333°N, 13.9167°E)
Time: 09:32:00
(UTC+00:00)

Cosmos 1634 Rocket - Pass Details

Date: 18 September 2020
Orbit: 961 x 991 km, 82.9° (Epoch: 27 October)

Event Time Altitude Azimuth Distance (km) Brightness Sun altitude
Exits shadow 19:34:23 41° 162° (SSE) 1,358 4.4 -23.5°
Maximum altitude 19:36:32 68° 95° (E) 1,035 3.9 -23.8°
Drops below altitude 10° 19:42:42 10° 14° (NNE) 2,716 6.6 -24.7°
Sets 19:45:14 0° 12° (NNE) 3,671 7.3 -25.0°
